TimeIST,TemperatureF,Dew PointF,Humidity,Sea Level PressureIn,VisibilityMPH,Wind Direction,Wind SpeedMPH,Gust SpeedMPH,PrecipitationIn,Events,Conditions,WindDirDegrees,DateUTC
12:00 AM,59.0,48.2,67,29.89,1.2,Calm,Calm,-,N/A,,Haze,0,2012-12-08 18:30:00
2:00 AM,53.6,46.4,77,29.89,1.2,Calm,Calm,-,N/A,,Mist,0,2012-12-08 20:30:00
2:30 AM,53,47,72,29.91,1,Calm,Calm,,,,Mist,,2012-12-08 21:00:00
3:00 AM,51.8,46.4,82,29.86,1.2,Variable,2.3,-,N/A,,Mist,0,2012-12-08 21:30:00
4:00 AM,51.8,46.4,82,29.86,1.2,Variable,2.3,-,N/A,,Mist,0,2012-12-08 22:30:00
5:00 AM,51.8,46.4,82,29.86,1.2,Variable,2.3,-,N/A,,Mist,0,2012-12-08 23:30:00
6:00 AM,48.2,46.4,93,29.89,1.0,Variable,2.3,-,N/A,,Mist,0,2012-12-09 00:30:00
7:00 AM,48.2,44.6,87,29.92,0.7,Calm,Calm,-,N/A,,Mist,0,2012-12-09 01:30:00
8:00 AM,53.6,46.4,77,29.92,0.6,Calm,Calm,-,N/A,Fog,Fog,0,2012-12-09 02:30:00
8:30 AM,58,46,55,29.96,1,Calm,Calm,,,Fog,Patches of Fog,,2012-12-09 03:00:00
8:30 AM,57.2,46.4,67,29.95,0.6,Calm,Calm,-,N/A,Fog,Shallow Fog,0,2012-12-09 03:00:00
9:00 AM,60.8,48.2,63,29.95,0.7,Variable,2.3,-,N/A,Fog,Shallow Fog,0,2012-12-09 03:30:00
10:00 AM,68.0,50.0,52,29.95,1.1,Variable,2.3,-,N/A,,Mist,0,2012-12-09 04:30:00
10:30 AM,71.6,48.2,43,29.95,1.2,Variable,2.3,-,N/A,,Haze,0,2012-12-09 05:00:00
11:00 AM,73.4,50.0,44,29.92,1.6,NNW,5.8,-,N/A,,Haze,340,2012-12-09 05:30:00
11:30 AM,75,49,29,29.94,1,NW,4.6,,,,Haze,320,2012-12-09 06:00:00
11:30 AM,75.2,48.2,38,29.92,1.6,NW,4.6,-,N/A,,Haze,320,2012-12-09 06:00:00
12:30 PM,77.0,51.8,41,29.89,1.9,North,3.5,-,N/A,,Haze,350,2012-12-09 07:00:00
1:00 PM,77.0,51.8,41,29.86,1.9,North,5.8,-,N/A,,Haze,350,2012-12-09 07:30:00
1:30 PM,78.8,50.0,36,29.83,2.2,NNW,4.6,-,N/A,,Haze,330,2012-12-09 08:00:00
2:00 PM,78.8,50.0,36,29.83,2.5,NW,4.6,-,N/A,,Haze,320,2012-12-09 08:30:00
2:30 PM,79,50,25,29.84,2,NW,4.6,,,,Haze,320,2012-12-09 09:00:00
2:30 PM,78.8,50.0,36,29.83,2.5,NW,4.6,-,N/A,,Haze,320,2012-12-09 09:00:00
3:00 PM,78.8,48.2,34,29.83,2.5,NW,4.6,-,N/A,,Haze,320,2012-12-09 09:30:00
3:30 PM,78.8,48.2,34,29.83,2.8,WNW,4.6,-,N/A,,Haze,300,2012-12-09 10:00:00
4:00 PM,78.8,50.0,36,29.83,2.8,WNW,3.5,-,N/A,,Haze,300,2012-12-09 10:30:00
4:30 PM,77.0,51.8,41,29.83,2.5,WNW,3.5,-,N/A,,Haze,300,2012-12-09 11:00:00
5:00 PM,75.2,53.6,47,29.83,2.2,Variable,2.3,-,N/A,,Haze,0,2012-12-09 11:30:00
5:30 PM,72,53,41,29.83,1,,2.3,,,,Haze,,2012-12-09 12:00:00
5:30 PM,71.6,53.6,53,29.83,2.2,Variable,2.3,-,N/A,,Haze,0,2012-12-09 12:00:00
6:30 PM,66.2,51.8,60,29.83,1.9,Calm,Calm,-,N/A,,Haze,0,2012-12-09 13:00:00
7:00 PM,64.4,51.8,64,29.83,1.9,Calm,Calm,-,N/A,,Haze,0,2012-12-09 13:30:00
7:30 PM,62.6,51.8,68,29.86,1.9,Calm,Calm,-,N/A,,Haze,0,2012-12-09 14:00:00
8:00 PM,62.6,51.8,68,29.86,1.9,SW,3.5,-,N/A,,Haze,230,2012-12-09 14:30:00
8:30 PM,62,52,60,29.89,1,,2.3,,,,Haze,,2012-12-09 15:00:00
8:30 PM,62.6,51.8,68,29.86,1.9,Variable,2.3,-,N/A,,Haze,0,2012-12-09 15:00:00
9:00 PM,62.6,51.8,68,29.86,1.9,Variable,2.3,-,N/A,,Haze,0,2012-12-09 15:30:00
10:00 PM,59.0,51.8,77,29.86,1.9,Calm,Calm,-,N/A,,Mist,0,2012-12-09 16:30:00
11:00 PM,57.2,50.0,77,29.86,1.6,Variable,2.3,-,N/A,,Mist,0,2012-12-09 17:30:00
11:30 PM,56,50,75,29.89,1,,2.3,,,,Mist,,2012-12-09 18:00:00